| time (UTC) | temp F | wind direction | speed MPH | gust MPH | rain 1hr in | rain 24hr in | rain mn in | humidity % | barometer mb |
| 20260905090519 | 81 | 176 | 0.0 | 3.0 | 0.00 | 0.00 | 0.00 | 70 | 1006.3 |
| 20260905090026 | 82 | 176 | 1.0 | 3.0 | 0.00 | 0.04 | 0.00 | 69 | 1006.4 |
| 20260905085534 | 82 | 207 | 2.0 | 3.0 | 0.00 | 0.04 | 0.00 | 69 | 1006.3 |
| 20260905085040 | 82 | 169 | 0.0 | 3.0 | 0.00 | 0.04 | 0.00 | 69 | 1006.4 |
| 20260905084524 | 82 | 184 | 2.0 | 4.0 | 0.00 | 0.04 | 0.00 | 68 | 1006.4 |
| 20260905084033 | 83 | 184 | 2.0 | 3.0 | 0.00 | 0.04 | 0.00 | 67 | 1006.3 |
| 20260905083049 | 83 | 193 | 1.0 | 4.0 | 0.00 | 0.04 | 0.00 | 66 | 1006.4 |
| 20260905082538 | 84 | 160 | 1.0 | 3.0 | 0.00 | 0.04 | 0.00 | 66 | 1006.4 |
| 20260905082021 | 84 | 161 | 1.0 | 3.0 | 0.00 | 0.04 | 0.00 | 65 | 1006.3 |
| 20260905081541 | 84 | 162 | 0.0 | 2.0 | 0.00 | 0.04 | 0.00 | 65 | 1006.3 |
| 20260905081025 | 84 | 186 | 1.0 | 3.0 | 0.00 | 0.04 | 0.00 | 65 | 1006.3 |
| 20260905080537 | 84 | 171 | 1.0 | 5.0 | 0.00 | 0.04 | 0.00 | 65 | 1006.3 |
| 20260905080017 | 84 | 189 | 1.0 | 5.0 | 0.00 | 0.12 | 0.00 | 65 | 1006.3 |
| 20260905075526 | 84 | 166 | 1.0 | 2.0 | 0.00 | 0.12 | 0.00 | 65 | 1006.3 |
| 20260905075036 | 84 | 174 | 0.0 | 2.0 | 0.00 | 0.12 | 0.00 | 65 | 1006.2 |
| 20260905074519 | 84 | 174 | 0.0 | 2.0 | 0.00 | 0.12 | 0.00 | 66 | 1006.1 |
| 20260905074019 | 84 | 177 | 0.0 | 3.0 | 0.00 | 0.12 | 0.00 | 66 | 1006.2 |
| 20260905073530 | 84 | 200 | 2.0 | 3.0 | 0.00 | 0.12 | 0.00 | 64 | 1006.2 |
| 20260905073033 | 84 | 172 | 1.0 | 4.0 | 0.00 | 0.12 | 0.00 | 64 | 1006.1 |
| 20260905072542 | 84 | 176 | 1.0 | 4.0 | 0.00 | 0.12 | 0.00 | 64 | 1006.0 |
| 20260905072024 | 84 | 188 | 2.0 | 3.0 | 0.00 | 0.12 | 0.00 | 63 | 1006.1 |
| 20260905071535 | 85 | 185 | 1.0 | 3.0 | 0.00 | 0.12 | 0.00 | 62 | 1006.1 |
| 20260905071018 | 85 | 153 | 1.0 | 2.0 | 0.00 | 0.12 | 0.00 | 60 | 1006.0 |
| 20260905070528 | 85 | 152 | 0.0 | 3.0 | 0.00 | 0.12 | 0.00 | 60 | 1005.9 |
| 20260905070016 | 85 | 172 | 1.0 | 3.0 | 0.00 | 0.24 | 0.00 | 61 | 1005.9 |
| 20260905065526 | 85 | 132 | 1.0 | 4.0 | 0.00 | 0.24 | 0.00 | 61 | 1005.9 |
| 20260905065033 | 84 | 141 | 1.0 | 5.0 | 0.00 | 0.24 | 0.00 | 61 | 1005.9 |
| 20260905064558 | 85 | 71 | 2.0 | 5.0 | 0.00 | 0.24 | 0.00 | 61 | 1006.0 |
| 20260905064019 | 85 | 91 | 3.0 | 6.0 | 0.00 | 0.24 | 0.00 | 61 | 1005.9 |
| 20260905063529 | 85 | 70 | 2.0 | 6.0 | 0.00 | 0.24 | 0.00 | 60 | 1006.0 |
| 20260905063036 | 85 | 133 | 1.0 | 6.0 | 0.00 | 0.24 | 0.00 | 61 | 1006.0 |
| 20260905062038 | 84 | 49 | 2.0 | 7.0 | 0.00 | 0.24 | 0.00 | 59 | 1006.0 |
| 20260905061520 | 84 | 75 | 3.0 | 8.0 | 0.00 | 0.24 | 0.00 | 60 | 1006.2 |
| 20260905061049 | 85 | 38 | 4.0 | 8.0 | 0.00 | 0.24 | 0.00 | 59 | 1006.2 |
| 20260905060539 | 85 | 69 | 4.0 | 8.0 | 0.00 | 0.24 | 0.00 | 59 | 1006.1 |
| 20260905060019 | 85 | 116 | 2.0 | 8.0 | 0.00 | 0.59 | 0.00 | 59 | 1006.2 |
| 20260905055527 | 85 | 68 | 4.0 | 8.0 | 0.00 | 0.59 | 0.00 | 58 | 1006.3 |
| 20260905055036 | 85 | 49 | 4.0 | 7.0 | 0.00 | 0.59 | 0.00 | 58 | 1006.3 |
| 20260905054539 | 85 | 75 | 4.0 | 7.0 | 0.00 | 0.59 | 0.00 | 59 | 1006.4 |
| 20260905054028 | 85 | 309 | 4.0 | 9.0 | 0.00 | 0.59 | 0.00 | 58 | 1006.4 |
| 20260905053539 | 85 | 65 | 4.0 | 9.0 | 0.00 | 0.59 | 0.00 | 58 | 1006.5 |
| 20260905053015 | 85 | 69 | 3.0 | 8.0 | 0.00 | 0.59 | 0.00 | 57 | 1006.4 |
| 20260905052525 | 85 | 356 | 3.0 | 8.0 | 0.00 | 0.59 | 0.00 | 58 | 1006.5 |
| 20260905052037 | 85 | 63 | 4.0 | 7.0 | 0.00 | 0.59 | 0.00 | 58 | 1006.5 |
| 20260905051526 | 84 | 93 | 3.0 | 9.0 | 0.00 | 0.59 | 0.00 | 59 | 1006.5 |
| 20260905051035 | 84 | 45 | 4.0 | 9.0 | 0.00 | 0.59 | 0.00 | 58 | 1006.6 |
| 20260905050520 | 84 | 18 | 5.0 | 8.0 | 0.00 | 0.59 | 0.00 | 59 | 1006.6 |
| 20260905050018 | 84 | 44 | 4.0 | 8.0 | 0.00 | 0.87 | 0.00 | 59 | 1006.7 |
| 20260905045528 | 84 | 72 | 4.0 | 7.0 | 0.00 | 0.87 | 0.00 | 59 | 1006.8 |
| 20260905045024 | 84 | 19 | 3.0 | 7.0 | 0.00 | 0.87 | 0.00 | 60 | 1006.8 |
| 20260905044532 | 85 | 90 | 2.0 | 7.0 | 0.00 | 0.87 | 0.00 | 60 | 1006.9 |
| 20260905044042 | 84 | 72 | 4.0 | 7.0 | 0.00 | 0.87 | 0.00 | 59 | 1006.9 |
| 20260905043546 | 85 | 57 | 3.0 | 6.0 | 0.00 | 0.87 | 0.00 | 59 | 1006.8 |
| 20260905043034 | 85 | 193 | 2.0 | 8.0 | 0.00 | 0.87 | 0.00 | 59 | 1006.9 |
| 20260905042518 | 85 | 101 | 3.0 | 8.0 | 0.00 | 0.87 | 0.00 | 60 | 1006.9 |
| 20260905042028 | 85 | 80 | 3.0 | 7.0 | 0.00 | 0.87 | 0.00 | 59 | 1006.9 |
| 20260905041538 | 85 | 127 | 3.0 | 12.0 | 0.00 | 0.87 | 0.00 | 59 | 1006.9 |
| 20260905041025 | 85 | 110 | 4.0 | 12.0 | 0.00 | 0.87 | 0.00 | 58 | 1007.0 |
| 20260905040535 | 85 | 61 | 6.0 | 11.0 | 0.00 | 0.87 | 0.00 | 58 | 1007.0 |
| 20260905040041 | 85 | 53 | 3.0 | 11.0 | 0.00 | 1.30 | 0.00 | 59 | 1007.0 |
| 20260905035525 | 85 | 37 | 6.0 | 11.0 | 0.00 | 1.30 | 0.00 | 58 | 1007.1 |
| 20260905035034 | 85 | 273 | 6.0 | 11.0 | 0.00 | 1.30 | 0.00 | 60 | 1007.3 |
| 20260905034517 | 85 | 90 | 5.0 | 11.0 | 0.00 | 1.30 | 0.00 | 60 | 1007.3 |
| 20260905034019 | 85 | 126 | 7.0 | 12.0 | 0.00 | 1.30 | 0.00 | 59 | 1007.3 |
| 20260905033525 | 85 | 111 | 6.0 | 14.0 | 0.00 | 1.30 | 0.00 | 60 | 1007.2 |
| 20260905033035 | 85 | 32 | 7.0 | 14.0 | 0.00 | 1.30 | 0.00 | 59 | 1007.3 |
| 20260905032515 | 85 | 84 | 5.0 | 11.0 | 0.00 | 1.30 | 0.00 | 60 | 1007.3 |
| 20260905032024 | 85 | 50 | 6.0 | 11.0 | 0.00 | 1.30 | 0.00 | 59 | 1007.4 |
| 20260905031534 | 84 | 8 | 5.0 | 12.0 | 0.00 | 1.30 | 0.00 | 60 | 1007.5 |
| 20260905031042 | 84 | 98 | 5.0 | 12.0 | 0.00 | 1.30 | 0.00 | 60 | 1007.6 |
| 20260905030526 | 84 | 35 | 5.0 | 10.0 | 0.00 | 1.30 | 0.00 | 61 | 1007.7 |
| 20260905030030 | 84 | 41 | 5.0 | 10.0 | 0.00 | 1.97 | 0.00 | 62 | 1007.7 |
| 20260905025606 | 83 | 289 | 5.0 | 11.0 | 0.00 | 1.97 | 0.00 | 61 | 1007.7 |
| 20260905025049 | 83 | 63 | 6.0 | 11.0 | 0.00 | 1.97 | 0.00 | 62 | 1007.8 |
| 20260905024539 | 83 | 49 | 5.0 | 11.0 | 0.00 | 1.97 | 0.00 | 63 | 1007.8 |
| 20260905023536 | 84 | 72 | 4.0 | 10.0 | 0.00 | 1.97 | 0.00 | 62 | 1007.7 |
| 20260905023016 | 84 | 59 | 4.0 | 9.0 | 0.00 | 1.97 | 0.00 | 62 | 1007.6 |
| 20260905022547 | 84 | 73 | 4.0 | 10.0 | 0.00 | 1.97 | 0.00 | 63 | 1007.7 |
| 20260905022030 | 83 | 103 | 5.0 | 10.0 | 0.00 | 1.97 | 0.00 | 63 | 1007.7 |
| 20260905021539 | 83 | 36 | 5.0 | 8.0 | 0.00 | 1.97 | 0.00 | 63 | 1007.6 |
| 20260905021023 | 83 | 61 | 5.0 | 8.0 | 0.00 | 1.97 | 0.00 | 63 | 1007.7 |
| 20260905020555 | 83 | 103 | 4.0 | 8.0 | 0.00 | 1.97 | 0.00 | 63 | 1007.8 |
| 20260905020037 | 83 | 174 | 2.0 | 7.0 | 0.00 | 2.60 | 0.00 | 64 | 1007.8 |
| 20260905015545 | 83 | 69 | 4.0 | 7.0 | 0.00 | 2.60 | 0.00 | 63 | 1007.9 |
| 20260905015026 | 83 | 112 | 2.0 | 5.0 | 0.00 | 2.60 | 0.00 | 63 | 1008.0 |
| 20260905014533 | 83 | 83 | 2.0 | 7.0 | 0.00 | 2.60 | 0.00 | 64 | 1008.0 |
| 20260905014038 | 83 | 278 | 3.0 | 7.0 | 0.00 | 2.60 | 0.00 | 63 | 1008.1 |
| 20260905013522 | 82 | 153 | 1.0 | 5.0 | 0.00 | 2.60 | 0.00 | 65 | 1008.1 |
| 20260905013029 | 82 | 171 | 1.0 | 6.0 | 0.00 | 2.60 | 0.00 | 65 | 1008.2 |
| 20260905012539 | 82 | 293 | 2.0 | 7.0 | 0.00 | 2.60 | 0.00 | 65 | 1008.2 |
| 20260905012021 | 82 | 213 | 3.0 | 5.0 | 0.00 | 2.60 | 0.00 | 65 | 1008.1 |
| 20260905011530 | 81 | 226 | 2.0 | 8.0 | 0.00 | 2.60 | 0.00 | 66 | 1008.2 |
| 20260905011040 | 81 | 172 | 3.0 | 8.0 | 0.00 | 2.60 | 0.00 | 66 | 1008.3 |
| 20260905010523 | 81 | 175 | 1.0 | 6.0 | 0.00 | 2.60 | 0.00 | 66 | 1008.4 |
| 20260905010027 | 80 | 180 | 1.0 | 7.0 | 0.00 | 3.15 | 0.00 | 67 | 1008.3 |
| 20260905005536 | 80 | 195 | 1.0 | 7.0 | 0.00 | 3.15 | 0.00 | 68 | 1008.4 |
| 20260905005018 | 80 | 218 | 2.0 | 5.0 | 0.00 | 3.15 | 0.00 | 68 | 1008.5 |
| 20260905004527 | 80 | 185 | 1.0 | 4.0 | 0.00 | 3.15 | 0.00 | 69 | 1008.4 |
| 20260905004037 | 79 | 176 | 1.0 | 4.0 | 0.00 | 3.15 | 0.00 | 70 | 1008.5 |
| 20260905003520 | 79 | 199 | 1.0 | 4.0 | 0.00 | 3.15 | 0.00 | 71 | 1008.5 |
| 20260905003026 | 79 | 176 | 0.0 | 4.0 | 0.00 | 3.15 | 0.00 | 72 | 1008.4 |
| 20260905002516 | 79 | 176 | 0.0 | 3.0 | 0.00 | 3.15 | 0.00 | 73 | 1008.4 |
| 20260905002042 | 78 | 186 | 1.0 | 4.0 | 0.00 | 3.15 | 0.00 | 75 | 1008.4 |
| 20260905001524 | 78 | 199 | 2.0 | 4.0 | 0.00 | 3.15 | 0.00 | 75 | 1008.4 |
| 20260905001032 | 77 | 183 | 0.0 | 2.0 | 0.00 | 3.15 | 0.00 | 77 | 1008.4 |
| 20260905000604 | 77 | 186 | 2.0 | 3.0 | 0.00 | 3.15 | 0.00 | 76 | 1008.4 |
| 20260905000046 | 77 | 165 | 0.0 | 3.0 | 0.00 | 3.94 | 0.00 | 78 | 1008.3 |
| 20260904235534 | 77 | 163 | 0.0 | 3.0 | 0.00 | 3.94 | 0.00 | 79 | 1008.3 |
| 20260904235043 | 76 | 163 | 1.0 | 6.0 | 0.00 | 3.94 | 0.00 | 78 | 1008.2 |
| 20260904234520 | 76 | 194 | 2.0 | 6.0 | 0.00 | 3.94 | 0.00 | 77 | 1008.1 |
| 20260904234035 | 76 | 184 | 2.0 | 6.0 | 0.00 | 3.94 | 0.00 | 79 | 1008.0 |
| 20260904233519 | 76 | 181 | 3.0 | 5.0 | 0.00 | 3.94 | 0.00 | 79 | 1008.2 |
| 20260904233025 | 75 | 203 | 1.0 | 4.0 | 0.00 | 3.94 | 0.00 | 80 | 1008.2 |
| 20260904232545 | 75 | 173 | 1.0 | 2.0 | 0.00 | 3.94 | 0.00 | 80 | 1008.2 |
| 20260904232023 | 75 | 169 | 0.0 | 4.0 | 0.00 | 3.94 | 0.00 | 81 | 1008.0 |
| 20260904231529 | 75 | 185 | 0.0 | 5.0 | 0.00 | 3.94 | 0.00 | 81 | 1008.1 |
| 20260904231039 | 75 | 222 | 2.0 | 5.0 | 0.00 | 3.94 | 0.00 | 81 | 1008.1 |
| 20260904230539 | 74 | 176 | 1.0 | 3.0 | 0.00 | 3.94 | 0.00 | 82 | 1008.1 |
| 20260904230025 | 74 | 203 | 1.0 | 3.0 | 0.00 | 4.13 | 0.00 | 82 | 1008.2 |
| 20260904225534 | 74 | 190 | 1.0 | 3.0 | 0.00 | 4.13 | 0.00 | 83 | 1008.2 |
| 20260904225138 | 74 | 181 | 0.0 | 2.0 | 0.00 | 4.13 | 0.00 | 84 | 1008.1 |
| 20260904224603 | 73 | 175 | 0.0 | 3.0 | 0.00 | 4.13 | 0.00 | 85 | 1008.1 |
| 20260904224022 | 73 | 194 | 2.0 | 4.0 | 0.00 | 4.13 | 0.00 | 85 | 1008.0 |
| 20260904223555 | 72 | 190 | 1.0 | 5.0 | 0.00 | 4.13 | 0.00 | 86 | 1007.9 |
| 20260904223038 | 72 | 168 | 1.0 | 5.0 | 0.00 | 4.13 | 0.00 | 86 | 1007.9 |
| 20260904222520 | 71 | 184 | 2.0 | 4.0 | 0.00 | 4.13 | 0.00 | 86 | 1007.9 |
| 20260904222028 | 71 | 175 | 1.0 | 2.0 | 0.00 | 4.13 | 0.00 | 87 | 1008.0 |
| 20260904221539 | 71 | 190 | 0.0 | 2.0 | 0.00 | 4.13 | 0.00 | 87 | 1008.1 |
| 20260904221020 | 71 | 190 | 0.0 | 3.0 | 0.00 | 4.13 | 0.00 | 87 | 1008.0 |
| 20260904220529 | 71 | 200 | 0.0 | 3.0 | 0.00 | 4.13 | 0.00 | 87 | 1008.0 |
| 20260904220028 | 70 | 179 | 0.0 | 2.0 | 0.00 | 4.25 | 0.00 | 87 | 1008.1 |
| 20260904215516 | 70 | 179 | 1.0 | 2.0 | 0.00 | 4.25 | 0.00 | 87 | 1008.0 |
| 20260904215022 | 70 | 179 | 0.0 | 1.0 | 0.00 | 4.25 | 0.00 | 87 | 1008.0 |
| 20260904214553 | 70 | 179 | 0.0 | 1.0 | 0.00 | 4.25 | 0.00 | 87 | 1007.9 |
| 20260904214041 | 70 | 179 | 0.0 | 1.0 | 0.00 | 4.25 | 0.00 | 87 | 1008.0 |
| 20260904213525 | 70 | 179 | 0.0 | 3.0 | 0.00 | 4.25 | 0.00 | 87 | 1008.0 |
| 20260904213032 | 70 | 179 | 0.0 | 4.0 | 0.00 | 4.25 | 0.00 | 87 | 1007.8 |
| 20260904212516 | 70 | 208 | 2.0 | 4.0 | 0.00 | 4.25 | 0.00 | 87 | 1007.6 |
| 20260904212016 | 70 | 184 | 2.0 | 5.0 | 0.00 | 4.25 | 0.00 | 87 | 1007.5 |
| 20260904211542 | 70 | 180 | 2.0 | 5.0 | 0.00 | 4.25 | 0.00 | 87 | 1007.4 |
| 20260904211022 | 70 | 176 | 1.0 | 4.0 | 0.00 | 4.25 | 0.00 | 87 | 1007.4 |
| 20260904210554 | 70 | 204 | 2.0 | 4.0 | 0.00 | 4.25 | 0.00 | 88 | 1007.3 |
| 20260904210040 | 70 | 179 | 0.0 | 2.0 | 0.00 | 4.69 | 0.00 | 88 | 1007.3 |
| 20260904205521 | 69 | 184 | 1.0 | 2.0 | 0.00 | 4.69 | 0.00 | 88 | 1007.3 |
| 20260904205030 | 69 | 172 | 0.0 | 1.0 | 0.00 | 4.69 | 0.00 | 87 | 1007.3 |
| 20260904204611 | 70 | 172 | 0.0 | 4.0 | 0.00 | 4.69 | 0.00 | 88 | 1007.3 |
| 20260904204053 | 70 | 172 | 2.0 | 4.0 | 0.00 | 4.69 | 0.00 | 88 | 1007.3 |
| 20260904203536 | 70 | 182 | 0.0 | 2.0 | 0.00 | 4.69 | 0.00 | 88 | 1007.3 |
| 20260904203042 | 70 | 179 | 1.0 | 3.0 | 0.00 | 4.69 | 0.00 | 88 | 1007.3 |
| 20260904202525 | 70 | 179 | 0.0 | 3.0 | 0.00 | 4.69 | 0.00 | 88 | 1007.2 |
| 20260904202035 | 70 | 167 | 0.0 | 4.0 | 0.00 | 4.69 | 0.00 | 88 | 1007.4 |
| 20260904201515 | 70 | 179 | 1.0 | 5.0 | 0.00 | 4.69 | 0.00 | 88 | 1007.3 |
| 20260904201037 | 70 | 153 | 2.0 | 5.0 | 0.00 | 4.69 | 0.00 | 88 | 1007.4 |
| 20260904200604 | 70 | 172 | 1.0 | 5.0 | 0.00 | 4.69 | 0.00 | 88 | 1007.4 |
| 20260904200023 | 70 | 176 | 1.0 | 2.0 | 0.00 | 5.20 | 0.00 | 88 | 1007.5 |
| 20260904195554 | 70 | 176 | 0.0 | 2.0 | 0.00 | 5.20 | 0.00 | 88 | 1007.5 |
| 20260904195037 | 70 | 176 | 1.0 | 3.0 | 0.00 | 5.20 | 0.00 | 88 | 1007.6 |
| 20260904194519 | 70 | 201 | 2.0 | 3.0 | 0.00 | 5.20 | 0.00 | 88 | 1007.7 |
| 20260904194029 | 70 | 201 | 2.0 | 3.0 | 0.00 | 5.20 | 0.00 | 88 | 1007.7 |
| 20260904193540 | 70 | 183 | 1.0 | 2.0 | 0.00 | 5.20 | 0.00 | 88 | 1007.6 |
| 20260904193022 | 70 | 181 | 1.0 | 2.0 | 0.00 | 5.20 | 0.00 | 89 | 1007.7 |
| 20260904192527 | 70 | 179 | 0.0 | 2.0 | 0.00 | 5.20 | 0.00 | 89 | 1007.7 |
| 20260904192036 | 71 | 179 | 1.0 | 4.0 | 0.00 | 5.20 | 0.00 | 89 | 1007.8 |
| 20260904191518 | 71 | 187 | 1.0 | 4.0 | 0.00 | 5.20 | 0.00 | 89 | 1007.7 |
| 20260904191028 | 70 | 191 | 0.0 | 4.0 | 0.00 | 5.20 | 0.00 | 89 | 1007.6 |
| 20260904190539 | 71 | 199 | 2.0 | 4.0 | 0.00 | 5.20 | 0.00 | 89 | 1007.7 |
| 20260904190040 | 71 | 174 | 1.0 | 3.0 | 0.00 | 5.94 | 0.00 | 89 | 1007.8 |
| 20260904185519 | 71 | 197 | 1.0 | 3.0 | 0.00 | 5.94 | 0.00 | 89 | 1007.8 |
| 20260904185045 | 71 | 188 | 1.0 | 3.0 | 0.00 | 5.94 | 0.00 | 89 | 1007.8 |
| 20260904184533 | 71 | 172 | 1.0 | 3.0 | 0.00 | 5.94 | 0.00 | 89 | 1007.9 |
| 20260904184017 | 71 | 199 | 1.0 | 3.0 | 0.00 | 5.94 | 0.00 | 89 | 1007.9 |
| 20260904183528 | 71 | 186 | 1.0 | 4.0 | 0.00 | 5.94 | 0.00 | 89 | 1007.9 |
| 20260904183055 | 71 | 189 | 2.0 | 4.0 | 0.00 | 5.94 | 0.00 | 90 | 1007.9 |
| 20260904182516 | 71 | 181 | 2.0 | 4.0 | 0.00 | 5.94 | 0.00 | 90 | 1007.9 |
| 20260904182026 | 71 | 174 | 2.0 | 6.0 | 0.00 | 5.94 | 0.00 | 90 | 1007.9 |
| 20260904181534 | 71 | 183 | 3.0 | 6.0 | 0.00 | 5.94 | 0.00 | 90 | 1007.8 |
| 20260904181040 | 71 | 192 | 2.0 | 5.0 | 0.00 | 5.94 | 0.00 | 90 | 1007.8 |
| 20260904180523 | 71 | 198 | 2.0 | 4.0 | 0.00 | 5.94 | 0.00 | 90 | 1007.7 |
| 20260904180050 | 71 | 190 | 2.0 | 4.0 | 0.00 | 6.22 | 0.00 | 90 | 1007.7 |
| 20260904175539 | 71 | 179 | 1.0 | 4.0 | 0.00 | 6.22 | 0.00 | 90 | 1007.7 |
| 20260904175022 | 71 | 162 | 2.0 | 4.0 | 0.00 | 6.22 | 0.00 | 90 | 1007.6 |
| 20260904174532 | 71 | 200 | 2.0 | 4.0 | 0.00 | 6.22 | 0.00 | 90 | 1007.6 |
| 20260904174102 | 71 | 175 | 1.0 | 3.0 | 0.00 | 6.22 | 0.00 | 90 | 1007.7 |
| 20260904173526 | 71 | 169 | 1.0 | 6.0 | 0.00 | 6.22 | 0.00 | 90 | 1007.7 |
| 20260904173030 | 71 | 181 | 1.0 | 4.0 | 0.00 | 6.22 | 0.00 | 90 | 1007.7 |
| 20260904172540 | 71 | 209 | 2.0 | 4.0 | 0.00 | 6.22 | 0.00 | 90 | 1007.6 |
| 20260904172044 | 71 | 181 | 0.0 | 5.0 | 0.00 | 6.22 | 0.00 | 90 | 1007.6 |
| 20260904171533 | 71 | 203 | 2.0 | 6.0 | 0.00 | 6.22 | 0.00 | 90 | 1007.6 |
| 20260904171037 | 71 | 188 | 3.0 | 6.0 | 0.00 | 6.22 | 0.00 | 90 | 1007.6 |
| 20260904170526 | 71 | 198 | 2.0 | 4.0 | 0.00 | 6.22 | 0.00 | 90 | 1007.6 |
| 20260904170033 | 71 | 205 | 2.0 | 4.0 | 0.00 | 6.26 | 0.00 | 90 | 1007.7 |
| 20260904165531 | 71 | 195 | 2.0 | 4.0 | 0.00 | 6.26 | 0.00 | 90 | 1007.8 |
| 20260904165040 | 71 | 186 | 0.0 | 1.0 | 0.00 | 6.26 | 0.00 | 90 | 1007.8 |
| 20260904164524 | 71 | 181 | 0.0 | 2.0 | 0.00 | 6.26 | 0.00 | 90 | 1007.8 |
| 20260904164054 | 71 | 181 | 1.0 | 2.0 | 0.00 | 6.26 | 0.00 | 90 | 1008.0 |
| 20260904163543 | 71 | 180 | 1.0 | 2.0 | 0.00 | 6.26 | 0.00 | 90 | 1008.0 |
| 20260904163023 | 71 | 180 | 0.0 | 3.0 | 0.00 | 6.26 | 0.00 | 90 | 1008.1 |
| 20260904162532 | 71 | 177 | 1.0 | 3.0 | 0.00 | 6.26 | 0.00 | 90 | 1008.1 |
| 20260904162041 | 71 | 186 | 1.0 | 3.0 | 0.00 | 6.26 | 0.00 | 90 | 1008.0 |
| 20260904161519 | 71 | 184 | 1.0 | 2.0 | 0.00 | 6.26 | 0.00 | 90 | 1008.1 |
| 20260904161050 | 71 | 176 | 0.0 | 3.0 | 0.00 | 6.26 | 0.00 | 90 | 1008.1 |
| 20260904160540 | 71 | 181 | 1.0 | 3.0 | 0.00 | 6.26 | 0.00 | 90 | 1008.2 |
| 20260904160022 | 71 | 191 | 0.0 | 1.0 | 0.00 | 6.26 | 0.00 | 90 | 1008.2 |
| 20260904155532 | 71 | 191 | 0.0 | 3.0 | 0.00 | 6.26 | 0.00 | 90 | 1008.1 |
| 20260904155016 | 71 | 192 | 2.0 | 5.0 | 0.00 | 6.26 | 0.00 | 90 | 1008.1 |
| 20260904154525 | 72 | 184 | 2.0 | 5.0 | 0.00 | 6.26 | 0.00 | 91 | 1008.0 |
| 20260904154036 | 72 | 195 | 2.0 | 3.0 | 0.00 | 6.26 | 0.00 | 91 | 1008.0 |
| 20260904153546 | 72 | 195 | 1.0 | 3.0 | 0.00 | 6.26 | 0.00 | 91 | 1008.0 |
| 20260904153032 | 72 | 188 | 1.0 | 3.0 | 0.00 | 6.26 | 0.00 | 91 | 1007.9 |
| 20260904152541 | 72 | 186 | 2.0 | 3.0 | 0.00 | 6.26 | 0.00 | 91 | 1008.0 |
| 20260904152023 | 72 | 165 | 1.0 | 2.0 | 0.00 | 6.26 | 0.00 | 91 | 1008.0 |
| 20260904151533 | 72 | 155 | 0.0 | 0.0 | 0.00 | 6.26 | 0.00 | 91 | 1007.9 |
| 20260904151036 | 72 | 155 | 0.0 | 0.0 | 0.00 | 6.26 | 0.00 | 91 | 1008.0 |
| 20260904150518 | 72 | 155 | 0.0 | 2.0 | 0.00 | 6.26 | 0.00 | 91 | 1008.0 |
| 20260904150047 | 72 | 155 | 0.0 | 2.0 | 0.00 | 6.26 | 1.25 | 91 | 1008.0 |
| 20260904145525 | 72 | 151 | 1.0 | 1.0 | 0.00 | 6.26 | 1.25 | 91 | 1008.0 |
| 20260904145054 | 72 | 143 | 0.0 | 1.0 | 0.00 | 6.26 | 1.25 | 91 | 1008.0 |
| 20260904144518 | 72 | 143 | 0.0 | 1.0 | 0.00 | 6.26 | 1.25 | 91 | 1008.1 |
| 20260904144029 | 72 | 144 | 0.0 | 1.0 | 0.00 | 6.26 | 1.25 | 91 | 1008.0 |
| 20260904143539 | 72 | 144 | 0.0 | 1.0 | 0.00 | 6.26 | 1.25 | 91 | 1008.1 |
| 20260904143038 | 72 | 144 | 0.0 | 1.0 | 0.00 | 6.26 | 1.25 | 91 | 1008.0 |
| 20260904142551 | 72 | 144 | 0.0 | 1.0 | 0.00 | 6.26 | 1.25 | 91 | 1007.9 |
| 20260904142038 | 72 | 143 | 0.0 | 1.0 | 0.00 | 6.26 | 1.25 | 91 | 1007.9 |
| 20260904141543 | 72 | 144 | 0.0 | 1.0 | 0.00 | 6.26 | 1.25 | 91 | 1007.8 |
| 20260904141033 | 72 | 144 | 0.0 | 1.0 | 0.00 | 6.26 | 1.25 | 90 | 1007.9 |
| 20260904140603 | 72 | 144 | 0.0 | 1.0 | 0.00 | 6.26 | 1.25 | 91 | 1008.0 |
| 20260904140023 | 72 | 144 | 0.0 | 0.0 | 0.00 | 6.26 | 1.25 | 90 | 1007.8 |
| 20260904135534 | 72 | 144 | 0.0 | 0.0 | 0.00 | 6.26 | 1.25 | 90 | 1007.8 |
| 20260904135015 | 73 | 144 | 0.0 | 0.0 | 0.00 | 6.26 | 1.25 | 90 | 1007.8 |
| 20260904134519 | 73 | 144 | 0.0 | 1.0 | 0.00 | 6.26 | 1.25 | 90 | 1007.7 |
| 20260904134023 | 73 | 144 | 0.0 | 1.0 | 0.00 | 6.26 | 1.25 | 90 | 1007.7 |
| 20260904133536 | 73 | 144 | 0.0 | 1.0 | 0.00 | 6.26 | 1.25 | 90 | 1007.7 |
| 20260904133018 | 73 | 144 | 0.0 | 1.0 | 0.00 | 6.26 | 1.25 | 90 | 1007.8 |
| 20260904132528 | 73 | 144 | 0.0 | 1.0 | 0.00 | 6.26 | 1.25 | 90 | 1007.8 |
| 20260904132037 | 73 | 144 | 0.0 | 2.0 | 0.00 | 6.26 | 1.25 | 90 | 1007.7 |
| 20260904131541 | 73 | 144 | 0.0 | 1.0 | 0.00 | 6.26 | 1.25 | 90 | 1007.7 |
| 20260904131100 | 73 | 131 | 0.0 | 1.0 | 0.00 | 6.26 | 1.25 | 90 | 1007.7 |
| 20260904130613 | 73 | 131 | 0.0 | 1.0 | 0.00 | 6.26 | 1.25 | 90 | 1007.7 |
| 20260904130036 | 73 | 131 | 0.0 | 0.0 | 0.00 | 6.26 | 1.25 | 90 | 1007.7 |
| 20260904125523 | 73 | 131 | 0.0 | 1.0 | 0.00 | 6.26 | 1.25 | 90 | 1007.8 |
| 20260904125051 | 73 | 131 | 0.0 | 1.0 | 0.00 | 6.26 | 1.25 | 90 | 1007.7 |
| 20260904124540 | 73 | 131 | 0.0 | 1.0 | 0.00 | 6.26 | 1.25 | 90 | 1007.8 |
| 20260904124023 | 73 | 131 | 0.0 | 1.0 | 0.00 | 6.26 | 1.25 | 90 | 1007.9 |
| 20260904123517 | 73 | 131 | 0.0 | 1.0 | 0.00 | 6.26 | 1.25 | 90 | 1007.9 |
| 20260904122527 | 73 | 131 | 0.0 | 1.0 | 0.00 | 6.26 | 1.25 | 90 | 1008.2 |
| 20260904122039 | 73 | 131 | 0.0 | 1.0 | 0.00 | 6.26 | 1.25 | 89 | 1008.0 |
| 20260904121523 | 73 | 131 | 0.0 | 1.0 | 0.00 | 6.26 | 1.25 | 89 | 1007.8 |
| 20260904121034 | 73 | 131 | 0.0 | 1.0 | 0.00 | 6.26 | 1.25 | 89 | 1007.7 |
| 20260904120518 | 74 | 131 | 0.0 | 1.0 | 0.00 | 6.26 | 1.25 | 89 | 1007.7 |
| 20260904115534 | 74 | 131 | 0.0 | 1.0 | 0.00 | 6.26 | 1.25 | 89 | 1007.7 |
| 20260904115037 | 74 | 131 | 0.0 | 1.0 | 0.00 | 6.26 | 1.25 | 89 | 1007.7 |
| 20260904114529 | 74 | 131 | 0.0 | 1.0 | 0.00 | 6.26 | 1.25 | 89 | 1007.7 |
| 20260904114039 | 74 | 131 | 0.0 | 1.0 | 0.00 | 6.26 | 1.25 | 89 | 1007.8 |
| 20260904113700 | 74 | 131 | 0.0 | 1.0 | 0.00 | 6.26 | 1.25 | 89 | 1007.8 |
| 20260904113033 | 74 | 131 | 0.0 | 1.0 | 0.00 | 6.26 | 1.25 | 88 | 1007.8 |
| 20260904112516 | 74 | 131 | 0.0 | 1.0 | 0.00 | 6.26 | 1.25 | 88 | 1007.7 |
| 20260904112017 | 74 | 131 | 0.0 | 1.0 | 0.00 | 6.26 | 1.25 | 88 | 1007.6 |
| 20260904111523 | 74 | 131 | 0.0 | 3.0 | 0.00 | 6.26 | 1.25 | 88 | 1007.5 |
| 20260904111032 | 74 | 127 | 0.0 | 3.0 | 0.00 | 6.26 | 1.25 | 88 | 1007.4 |
| 20260904110542 | 74 | 103 | 1.0 | 3.0 | 0.00 | 6.26 | 1.25 | 89 | 1007.5 |
| 20260904110023 | 74 | 103 | 1.0 | 3.0 | 0.00 | 6.34 | 1.25 | 89 | 1007.3 |
| 20260904105534 | 74 | 92 | 0.0 | 4.0 | 0.00 | 6.34 | 1.25 | 89 | 1007.4 |
| 20260904105016 | 74 | 72 | 2.0 | 4.0 | 0.00 | 6.34 | 1.25 | 89 | 1007.1 |
| 20260904104525 | 74 | 108 | 1.0 | 2.0 | 0.00 | 6.34 | 1.25 | 89 | 1007.1 |
| 20260904104035 | 74 | 139 | 0.0 | 1.0 | 0.00 | 6.34 | 1.25 | 89 | 1007.5 |
| 20260904103542 | 74 | 139 | 0.0 | 1.0 | 0.00 | 6.34 | 1.25 | 89 | 1007.1 |
| 20260904103023 | 74 | 139 | 0.0 | 1.0 | 0.00 | 6.34 | 1.25 | 89 | 1007.3 |
| 20260904102535 | 74 | 139 | 1.0 | 1.0 | 0.00 | 6.34 | 1.25 | 89 | 1007.1 |
| 20260904102018 | 75 | 139 | 0.0 | 1.0 | 0.00 | 6.34 | 1.25 | 89 | 1007.3 |
| 20260904101549 | 74 | 139 | 1.0 | 1.0 | 0.00 | 6.34 | 1.25 | 89 | 1007.1 |
| 20260904101037 | 75 | 133 | 0.0 | 1.0 | 0.00 | 6.34 | 1.25 | 89 | 1006.7 |
| 20260904100522 | 75 | 127 | 0.0 | 1.0 | 0.00 | 6.34 | 1.25 | 89 | 1006.7 |
| 20260904100030 | 75 | 127 | 0.0 | 1.0 | 0.00 | 6.73 | 1.25 | 89 | 1006.9 |
| 20260904095535 | 75 | 157 | 0.0 | 2.0 | 0.00 | 6.73 | 1.25 | 89 | 1007.1 |
| 20260904095018 | 74 | 157 | 1.0 | 2.0 | 0.00 | 6.73 | 1.25 | 89 | 1007.3 |
| 20260904094527 | 74 | 124 | 0.0 | 3.0 | 0.00 | 6.73 | 1.25 | 89 | 1006.9 |
| 20260904094037 | 74 | 99 | 2.0 | 3.0 | 0.00 | 6.73 | 1.25 | 88 | 1006.6 |
| 20260904093521 | 74 | 136 | 1.0 | 2.0 | 0.00 | 6.73 | 1.25 | 89 | 1006.9 |
| 20260904093029 | 75 | 136 | 1.0 | 2.0 | 0.00 | 6.73 | 1.25 | 89 | 1006.7 |
| 20260904092538 | 75 | 117 | 0.0 | 1.0 | 0.04 | 6.73 | 1.25 | 89 | 1006.5 |
| 20260904092022 | 75 | 113 | 0.0 | 1.0 | 0.04 | 6.73 | 1.25 | 89 | 1006.7 |
| 20260904091528 | 74 | 96 | 0.0 | 5.0 | 0.04 | 6.73 | 1.25 | 89 | 1007.0 |
| 20260904091036 | 74 | 96 | 2.0 | 5.0 | 0.04 | 6.73 | 1.25 | 89 | 1007.1 |